Time,TemperatureF,DewpointF,PressureIn,WindDirection,WindDirectionDegrees,WindSpeedMPH,WindSpeedGustMPH,Humidity,HourlyPrecipIn,Conditions,Clouds,dailyrainin,SoftwareType,DateUTC
2013-08-31 00:00:00,75.9,68.9,30.08,NE,45,4.0,-999.0,79,0.00,,,0.00,Wunderground v.1.15,2013-08-31 10:00:00,
2013-08-31 00:05:00,75.9,68.9,30.08,NE,45,4.0,-999.0,79,0.00,,,0.00,Wunderground v.1.15,2013-08-31 10:05:00,
2013-08-31 00:10:00,75.9,68.9,30.08,NE,45,4.0,-999.0,79,0.00,,,0.00,Wunderground v.1.15,2013-08-31 10:10:00,
2013-08-31 00:15:00,75.9,68.9,30.08,NE,45,4.0,-999.0,79,0.00,,,0.00,Wunderground v.1.15,2013-08-31 10:15:00,
2013-08-31 00:20:00,75.9,68.9,30.08,NE,45,4.0,-999.0,79,0.00,,,0.00,Wunderground v.1.15,2013-08-31 10:20:00,
2013-08-31 00:25:00,75.9,68.9,30.08,NE,45,4.0,-999.0,79,0.00,,,0.00,Wunderground v.1.15,2013-08-31 10:25:00,
2013-08-31 00:30:00,75.9,68.9,30.08,NE,45,4.0,-999.0,79,0.00,,,0.00,Wunderground v.1.15,2013-08-31 10:30:00,
2013-08-31 00:35:00,75.9,68.9,30.08,NE,45,4.0,-999.0,79,0.00,,,0.00,Wunderground v.1.15,2013-08-31 10:35:00,
2013-08-31 00:40:00,75.9,68.9,30.08,NE,45,4.0,-999.0,79,0.00,,,0.00,Wunderground v.1.15,2013-08-31 10:40:00,
2013-08-31 00:45:00,75.5,68.9,30.08,NE,45,2.0,-999.0,80,0.00,,,0.00,Wunderground v.1.15,2013-08-31 10:45:00,
2013-08-31 00:50:00,75.5,68.9,30.08,NE,45,2.0,-999.0,80,0.00,,,0.00,Wunderground v.1.15,2013-08-31 10:50:00,
2013-08-31 00:55:00,75.5,68.9,30.08,NE,45,2.0,-999.0,80,0.00,,,0.00,Wunderground v.1.15,2013-08-31 10:55:00,
2013-08-31 01:00:00,75.5,68.9,30.08,NE,45,2.0,-999.0,80,0.00,,,0.00,Wunderground v.1.15,2013-08-31 11:00:00,
2013-08-31 01:05:00,75.5,68.9,30.08,NE,45,2.0,-999.0,80,0.00,,,0.00,Wunderground v.1.15,2013-08-31 11:05:00,
2013-08-31 01:10:00,75.5,68.9,30.08,NE,45,2.0,-999.0,80,0.00,,,0.00,Wunderground v.1.15,2013-08-31 11:10:00,
2013-08-31 01:15:00,75.2,69.0,30.08,NE,45,3.0,-999.0,81,0.00,,,0.00,Wunderground v.1.15,2013-08-31 11:15:00,
2013-08-31 01:20:00,75.2,69.0,30.08,NE,45,3.0,-999.0,81,0.00,,,0.00,Wunderground v.1.15,2013-08-31 11:20:00,
2013-08-31 01:25:00,75.2,69.0,30.08,NE,45,3.0,-999.0,81,0.00,,,0.00,Wunderground v.1.15,2013-08-31 11:25:00,
2013-08-31 01:30:00,75.2,69.0,30.08,NE,45,3.0,-999.0,81,0.00,,,0.00,Wunderground v.1.15,2013-08-31 11:30:00,
2013-08-31 01:35:00,75.2,69.0,30.08,NE,45,3.0,-999.0,81,0.00,,,0.00,Wunderground v.1.15,2013-08-31 11:35:00,
2013-08-31 01:40:00,75.2,69.0,30.08,NE,45,3.0,-999.0,81,0.00,,,0.00,Wunderground v.1.15,2013-08-31 11:40:00,
2013-08-31 01:45:00,75.0,68.8,30.07,NE,45,2.0,-999.0,81,0.00,,,0.00,Wunderground v.1.15,2013-08-31 11:45:00,
2013-08-31 01:50:00,75.0,68.8,30.07,NE,45,2.0,-999.0,81,0.00,,,0.00,Wunderground v.1.15,2013-08-31 11:50:00,
2013-08-31 01:55:00,75.0,68.8,30.07,NE,45,2.0,-999.0,81,0.00,,,0.00,Wunderground v.1.15,2013-08-31 11:55:00,
2013-08-31 02:00:00,75.0,68.8,30.07,NE,45,2.0,-999.0,81,0.00,,,0.00,Wunderground v.1.15,2013-08-31 12:00:00,
2013-08-31 02:05:00,75.0,68.8,30.07,NE,45,2.0,-999.0,81,0.00,,,0.00,Wunderground v.1.15,2013-08-31 12:05:00,
2013-08-31 02:10:00,75.0,68.8,30.07,NE,45,2.0,-999.0,81,0.00,,,0.00,Wunderground v.1.15,2013-08-31 12:10:00,
2013-08-31 02:15:00,74.9,68.7,30.07,NE,45,2.0,-999.0,81,0.00,,,0.00,Wunderground v.1.15,2013-08-31 12:15:00,
2013-08-31 02:20:00,74.9,68.7,30.07,NE,45,2.0,-999.0,81,0.00,,,0.00,Wunderground v.1.15,2013-08-31 12:20:00,
2013-08-31 02:25:00,74.9,68.7,30.07,NE,45,2.0,-999.0,81,0.00,,,0.00,Wunderground v.1.15,2013-08-31 12:25:00,
2013-08-31 02:30:00,74.9,68.7,30.07,NE,45,2.0,-999.0,81,0.00,,,0.00,Wunderground v.1.15,2013-08-31 12:30:00,
2013-08-31 02:35:00,74.9,68.7,30.07,NE,45,2.0,-999.0,81,0.00,,,0.00,Wunderground v.1.15,2013-08-31 12:35:00,
2013-08-31 02:40:00,74.9,68.7,30.07,NE,45,2.0,-999.0,81,0.00,,,0.00,Wunderground v.1.15,2013-08-31 12:40:00,
2013-08-31 02:45:00,74.9,69.4,30.06,NE,45,2.0,-999.0,83,0.00,,,0.00,Wunderground v.1.15,2013-08-31 12:45:00,
2013-08-31 02:50:00,74.9,69.4,30.06,NE,45,2.0,-999.0,83,0.00,,,0.00,Wunderground v.1.15,2013-08-31 12:50:00,
2013-08-31 02:55:00,74.9,69.4,30.06,NE,45,2.0,-999.0,83,0.00,,,0.00,Wunderground v.1.15,2013-08-31 12:55:00,
2013-08-31 03:00:00,74.9,69.4,30.06,NE,45,2.0,-999.0,83,0.00,,,0.00,Wunderground v.1.15,2013-08-31 13:00:00,
2013-08-31 03:05:00,74.9,69.4,30.06,NE,45,2.0,-999.0,83,0.00,,,0.00,Wunderground v.1.15,2013-08-31 13:05:00,
2013-08-31 03:10:00,74.9,69.4,30.06,NE,45,2.0,-999.0,83,0.00,,,0.00,Wunderground v.1.15,2013-08-31 13:10:00,
2013-08-31 03:15:00,74.9,69.4,30.06,NE,45,2.0,-999.0,83,0.00,,,0.00,Wunderground v.1.15,2013-08-31 13:15:00,
2013-08-31 03:20:00,74.9,69.4,30.06,NE,45,2.0,-999.0,83,0.00,,,0.00,Wunderground v.1.15,2013-08-31 13:20:00,
2013-08-31 03:25:00,74.9,69.4,30.06,NE,45,2.0,-999.0,83,0.00,,,0.00,Wunderground v.1.15,2013-08-31 13:25:00,
2013-08-31 03:30:00,74.9,69.4,30.06,NE,45,2.0,-999.0,83,0.00,,,0.00,Wunderground v.1.15,2013-08-31 13:30:00,
2013-08-31 03:35:00,74.9,69.4,30.06,NE,45,2.0,-999.0,83,0.00,,,0.00,Wunderground v.1.15,2013-08-31 13:35:00,
2013-08-31 03:40:00,74.9,69.4,30.06,NE,45,2.0,-999.0,83,0.00,,,0.00,Wunderground v.1.15,2013-08-31 13:40:00,
2013-08-31 03:45:00,74.5,68.3,30.06,NE,45,0.0,-999.0,81,0.00,,,0.00,Wunderground v.1.15,2013-08-31 13:45:00,
2013-08-31 03:50:00,74.5,68.3,30.06,NE,45,0.0,-999.0,81,0.00,,,0.00,Wunderground v.1.15,2013-08-31 13:50:00,
2013-08-31 03:55:00,74.5,68.3,30.06,NE,45,0.0,-999.0,81,0.00,,,0.00,Wunderground v.1.15,2013-08-31 13:55:00,
2013-08-31 04:00:00,74.5,68.3,30.06,NE,45,0.0,-999.0,81,0.00,,,0.00,Wunderground v.1.15,2013-08-31 14:00:00,
2013-08-31 04:05:00,74.5,68.3,30.06,NE,45,0.0,-999.0,81,0.00,,,0.00,Wunderground v.1.15,2013-08-31 14:05:00,
2013-08-31 04:10:00,74.5,68.3,30.06,NE,45,0.0,-999.0,81,0.00,,,0.00,Wunderground v.1.15,2013-08-31 14:10:00,
2013-08-31 04:15:00,73.9,68.8,30.06,NE,45,1.0,-999.0,84,0.00,,,0.00,Wunderground v.1.15,2013-08-31 14:15:00,
2013-08-31 04:20:00,73.9,68.8,30.06,NE,45,1.0,-999.0,84,0.00,,,0.00,Wunderground v.1.15,2013-08-31 14:20:00,
2013-08-31 04:25:00,73.9,68.8,30.06,NE,45,1.0,-999.0,84,0.00,,,0.00,Wunderground v.1.15,2013-08-31 14:25:00,
2013-08-31 04:30:00,73.9,68.8,30.06,NE,45,1.0,-999.0,84,0.00,,,0.00,Wunderground v.1.15,2013-08-31 14:30:00,
2013-08-31 04:35:00,73.9,68.8,30.06,NE,45,1.0,-999.0,84,0.00,,,0.00,Wunderground v.1.15,2013-08-31 14:35:00,
2013-08-31 04:40:00,73.9,68.8,30.06,NE,45,1.0,-999.0,84,0.00,,,0.00,Wunderground v.1.15,2013-08-31 14:40:00,
2013-08-31 04:45:00,74.0,69.9,30.07,NE,45,2.0,-999.0,87,0.00,,,0.00,Wunderground v.1.15,2013-08-31 14:45:00,
2013-08-31 04:50:00,74.0,69.9,30.07,NE,45,2.0,-999.0,87,0.00,,,0.00,Wunderground v.1.15,2013-08-31 14:50:00,
2013-08-31 04:55:00,74.0,69.9,30.07,NE,45,2.0,-999.0,87,0.00,,,0.00,Wunderground v.1.15,2013-08-31 14:55:00,
2013-08-31 05:00:00,74.0,69.9,30.07,NE,45,2.0,-999.0,87,0.00,,,0.00,Wunderground v.1.15,2013-08-31 15:00:00,
2013-08-31 05:05:00,74.0,69.9,30.07,NE,45,2.0,-999.0,87,0.00,,,0.00,Wunderground v.1.15,2013-08-31 15:05:00,
2013-08-31 05:10:00,74.0,69.9,30.07,NE,45,2.0,-999.0,87,0.00,,,0.00,Wunderground v.1.15,2013-08-31 15:10:00,
2013-08-31 05:15:00,73.8,69.3,30.07,NE,45,1.0,-999.0,86,0.00,,,0.00,Wunderground v.1.15,2013-08-31 15:15:00,
2013-08-31 05:20:00,73.8,69.3,30.07,NE,45,1.0,-999.0,86,0.00,,,0.00,Wunderground v.1.15,2013-08-31 15:20:00,
2013-08-31 05:25:00,73.8,69.3,30.07,NE,45,1.0,-999.0,86,0.00,,,0.00,Wunderground v.1.15,2013-08-31 15:25:00,
2013-08-31 05:30:00,73.8,69.3,30.07,NE,45,1.0,-999.0,86,0.00,,,0.00,Wunderground v.1.15,2013-08-31 15:30:00,
2013-08-31 05:35:00,73.8,69.3,30.07,NE,45,1.0,-999.0,86,0.00,,,0.00,Wunderground v.1.15,2013-08-31 15:35:00,
2013-08-31 05:40:00,73.8,69.3,30.07,NE,45,1.0,-999.0,86,0.00,,,0.00,Wunderground v.1.15,2013-08-31 15:40:00,
2013-08-31 05:45:00,73.5,68.7,30.08,NE,45,1.0,-999.0,85,0.00,,,0.00,Wunderground v.1.15,2013-08-31 15:45:00,
2013-08-31 05:50:00,73.5,68.7,30.08,NE,45,1.0,-999.0,85,0.00,,,0.00,Wunderground v.1.15,2013-08-31 15:50:00,
2013-08-31 05:55:00,73.5,68.7,30.08,NE,45,1.0,-999.0,85,0.00,,,0.00,Wunderground v.1.15,2013-08-31 15:55:00,
2013-08-31 06:00:00,73.5,68.7,30.08,NE,45,1.0,-999.0,85,0.00,,,0.00,Wunderground v.1.15,2013-08-31 16:00:00,
2013-08-31 06:05:00,73.5,68.7,30.08,NE,45,1.0,-999.0,85,0.00,,,0.00,Wunderground v.1.15,2013-08-31 16:05:00,
2013-08-31 06:10:00,73.5,68.7,30.08,NE,45,1.0,-999.0,85,0.00,,,0.00,Wunderground v.1.15,2013-08-31 16:10:00,
2013-08-31 06:15:00,73.8,69.0,30.08,NE,45,1.0,-999.0,85,0.00,,,0.00,Wunderground v.1.15,2013-08-31 16:15:00,
2013-08-31 06:20:00,73.8,69.0,30.08,NE,45,1.0,-999.0,85,0.00,,,0.00,Wunderground v.1.15,2013-08-31 16:20:00,
2013-08-31 06:25:00,73.8,69.0,30.08,NE,45,1.0,-999.0,85,0.00,,,0.00,Wunderground v.1.15,2013-08-31 16:25:00,
2013-08-31 06:30:00,73.8,69.0,30.08,NE,45,1.0,-999.0,85,0.00,,,0.00,Wunderground v.1.15,2013-08-31 16:30:00,
2013-08-31 06:35:00,73.8,69.0,30.08,NE,45,1.0,-999.0,85,0.00,,,0.00,Wunderground v.1.15,2013-08-31 16:35:00,
2013-08-31 06:40:00,73.8,69.0,30.08,NE,45,1.0,-999.0,85,0.00,,,0.00,Wunderground v.1.15,2013-08-31 16:40:00,
2013-08-31 06:45:00,74.0,68.2,30.09,NE,45,1.0,-999.0,82,0.00,,,0.00,Wunderground v.1.15,2013-08-31 16:45:00,
2013-08-31 06:50:00,74.0,68.2,30.09,NE,45,1.0,-999.0,82,0.00,,,0.00,Wunderground v.1.15,2013-08-31 16:50:00,
2013-08-31 06:55:00,74.0,68.2,30.09,NE,45,1.0,-999.0,82,0.00,,,0.00,Wunderground v.1.15,2013-08-31 16:55:00,
2013-08-31 07:00:00,74.0,68.2,30.09,NE,45,1.0,-999.0,82,0.00,,,0.00,Wunderground v.1.15,2013-08-31 17:00:00,
2013-08-31 07:05:00,74.0,68.2,30.09,NE,45,1.0,-999.0,82,0.00,,,0.00,Wunderground v.1.15,2013-08-31 17:05:00,
2013-08-31 07:10:00,74.0,68.2,30.09,NE,45,1.0,-999.0,82,0.00,,,0.00,Wunderground v.1.15,2013-08-31 17:10:00,
2013-08-31 07:15:00,74.8,66.0,30.10,NE,45,2.0,-999.0,74,0.00,,,0.00,Wunderground v.1.15,2013-08-31 17:15:00,
2013-08-31 07:20:00,74.8,66.0,30.10,NE,45,2.0,-999.0,74,0.00,,,0.00,Wunderground v.1.15,2013-08-31 17:20:00,
2013-08-31 07:25:00,74.8,66.0,30.10,NE,45,2.0,-999.0,74,0.00,,,0.00,Wunderground v.1.15,2013-08-31 17:25:00,
2013-08-31 07:30:00,74.8,66.0,30.10,NE,45,2.0,-999.0,74,0.00,,,0.00,Wunderground v.1.15,2013-08-31 17:30:00,
2013-08-31 07:35:00,74.8,66.0,30.10,NE,45,2.0,-999.0,74,0.00,,,0.00,Wunderground v.1.15,2013-08-31 17:35:00,
2013-08-31 07:40:00,74.8,66.0,30.10,NE,45,2.0,-999.0,74,0.00,,,0.00,Wunderground v.1.15,2013-08-31 17:40:00,
2013-08-31 07:45:00,77.8,65.1,30.11,ENE,68,3.0,-999.0,65,0.00,,,0.00,Wunderground v.1.15,2013-08-31 17:45:00,
2013-08-31 07:50:00,77.8,65.1,30.11,ENE,68,3.0,-999.0,65,0.00,,,0.00,Wunderground v.1.15,2013-08-31 17:50:00,
2013-08-31 07:55:00,77.8,65.1,30.11,ENE,68,3.0,-999.0,65,0.00,,,0.00,Wunderground v.1.15,2013-08-31 17:55:00,
2013-08-31 08:00:00,77.8,65.1,30.11,ENE,68,3.0,-999.0,65,0.00,,,0.00,Wunderground v.1.15,2013-08-31 18:00:00,
2013-08-31 08:05:00,77.8,65.1,30.11,ENE,68,3.0,-999.0,65,0.00,,,0.00,Wunderground v.1.15,2013-08-31 18:05:00,
2013-08-31 08:10:00,77.8,65.1,30.11,ENE,68,3.0,-999.0,65,0.00,,,0.00,Wunderground v.1.15,2013-08-31 18:10:00,
2013-08-31 08:15:00,80.9,66.7,30.11,East,90,4.0,-999.0,62,0.00,,,0.00,Wunderground v.1.15,2013-08-31 18:15:00,
2013-08-31 08:20:00,80.9,66.7,30.11,East,90,4.0,-999.0,62,0.00,,,0.00,Wunderground v.1.15,2013-08-31 18:20:00,
2013-08-31 08:25:00,80.9,66.7,30.11,East,90,4.0,-999.0,62,0.00,,,0.00,Wunderground v.1.15,2013-08-31 18:25:00,
2013-08-31 08:30:00,80.9,66.7,30.11,East,90,4.0,-999.0,62,0.00,,,0.00,Wunderground v.1.15,2013-08-31 18:30:00,
2013-08-31 08:35:00,80.9,66.7,30.11,East,90,4.0,-999.0,62,0.00,,,0.00,Wunderground v.1.15,2013-08-31 18:35:00,
2013-08-31 08:40:00,80.9,66.7,30.11,East,90,4.0,-999.0,62,0.00,,,0.00,Wunderground v.1.15,2013-08-31 18:40:00,
2013-08-31 08:45:00,82.6,66.3,30.11,East,90,5.0,-999.0,58,0.00,,,0.00,Wunderground v.1.15,2013-08-31 18:45:00,
2013-08-31 08:50:00,82.6,66.3,30.11,East,90,5.0,-999.0,58,0.00,,,0.00,Wunderground v.1.15,2013-08-31 18:50:00,
2013-08-31 08:55:00,82.6,66.3,30.11,East,90,5.0,-999.0,58,0.00,,,0.00,Wunderground v.1.15,2013-08-31 18:55:00,
2013-08-31 09:00:00,82.6,66.3,30.11,East,90,5.0,-999.0,58,0.00,,,0.00,Wunderground v.1.15,2013-08-31 19:00:00,
2013-08-31 09:05:00,82.6,66.3,30.11,East,90,5.0,-999.0,58,0.00,,,0.00,Wunderground v.1.15,2013-08-31 19:05:00,
2013-08-31 09:10:00,82.6,66.3,30.11,East,90,5.0,-999.0,58,0.00,,,0.00,Wunderground v.1.15,2013-08-31 19:10:00,
2013-08-31 09:15:00,84.1,66.2,30.09,ENE,68,5.0,-999.0,55,0.00,,,0.00,Wunderground v.1.15,2013-08-31 19:15:00,
2013-08-31 09:20:00,84.1,66.2,30.09,ENE,68,5.0,-999.0,55,0.00,,,0.00,Wunderground v.1.15,2013-08-31 19:20:00,
2013-08-31 09:25:00,84.1,66.2,30.09,ENE,68,5.0,-999.0,55,0.00,,,0.00,Wunderground v.1.15,2013-08-31 19:25:00,
2013-08-31 09:30:00,84.1,66.2,30.09,ENE,68,5.0,-999.0,55,0.00,,,0.00,Wunderground v.1.15,2013-08-31 19:30:00,
2013-08-31 09:35:00,84.1,66.2,30.09,ENE,68,5.0,-999.0,55,0.00,,,0.00,Wunderground v.1.15,2013-08-31 19:35:00,
2013-08-31 09:40:00,84.1,66.2,30.09,ENE,68,5.0,-999.0,55,0.00,,,0.00,Wunderground v.1.15,2013-08-31 19:40:00,
2013-08-31 09:45:00,85.0,66.5,30.10,NE,45,8.0,-999.0,54,0.00,,,0.00,Wunderground v.1.15,2013-08-31 19:45:00,
2013-08-31 09:50:00,85.0,66.5,30.10,NE,45,8.0,-999.0,54,0.00,,,0.00,Wunderground v.1.15,2013-08-31 19:50:00,
2013-08-31 09:55:00,85.0,66.5,30.10,NE,45,8.0,-999.0,54,0.00,,,0.00,Wunderground v.1.15,2013-08-31 19:55:00,
2013-08-31 10:00:00,85.0,66.5,30.10,NE,45,8.0,-999.0,54,0.00,,,0.00,Wunderground v.1.15,2013-08-31 20:00:00,
2013-08-31 10:05:00,85.0,66.5,30.10,NE,45,8.0,-999.0,54,0.00,,,0.00,Wunderground v.1.15,2013-08-31 20:05:00,
2013-08-31 10:10:00,85.0,66.5,30.10,NE,45,8.0,-999.0,54,0.00,,,0.00,Wunderground v.1.15,2013-08-31 20:10:00,
2013-08-31 10:15:00,86.4,67.8,30.11,NE,45,9.0,-999.0,54,0.00,,,0.00,Wunderground v.1.15,2013-08-31 20:15:00,
2013-08-31 10:20:00,86.4,67.8,30.11,NE,45,9.0,-999.0,54,0.00,,,0.00,Wunderground v.1.15,2013-08-31 20:20:00,
2013-08-31 10:25:00,86.4,67.8,30.11,NE,45,9.0,-999.0,54,0.00,,,0.00,Wunderground v.1.15,2013-08-31 20:25:00,
2013-08-31 10:30:00,86.4,67.8,30.11,NE,45,9.0,-999.0,54,0.00,,,0.00,Wunderground v.1.15,2013-08-31 20:30:00,
2013-08-31 10:35:00,86.4,67.8,30.11,NE,45,9.0,-999.0,54,0.00,,,0.00,Wunderground v.1.15,2013-08-31 20:35:00,
2013-08-31 10:40:00,86.4,67.8,30.11,NE,45,9.0,-999.0,54,0.00,,,0.00,Wunderground v.1.15,2013-08-31 20:40:00,
2013-08-31 10:45:00,87.2,66.3,30.10,NE,45,8.0,-999.0,50,0.00,,,0.00,Wunderground v.1.15,2013-08-31 20:45:00,
2013-08-31 10:50:00,87.2,66.3,30.10,NE,45,8.0,-999.0,50,0.00,,,0.00,Wunderground v.1.15,2013-08-31 20:50:00,
2013-08-31 10:55:00,87.2,66.3,30.10,NE,45,8.0,-999.0,50,0.00,,,0.00,Wunderground v.1.15,2013-08-31 20:55:00,
2013-08-31 11:00:00,87.2,66.3,30.10,NE,45,8.0,-999.0,50,0.00,,,0.00,Wunderground v.1.15,2013-08-31 21:00:00,
2013-08-31 11:05:00,87.2,66.3,30.10,NE,45,8.0,-999.0,50,0.00,,,0.00,Wunderground v.1.15,2013-08-31 21:05:00,
2013-08-31 11:10:00,87.2,66.3,30.10,NE,45,8.0,-999.0,50,0.00,,,0.00,Wunderground v.1.15,2013-08-31 21:10:00,
2013-08-31 11:15:00,87.8,67.4,30.09,ENE,68,5.0,-999.0,51,0.00,,,0.00,Wunderground v.1.15,2013-08-31 21:15:00,
2013-08-31 11:20:00,87.8,67.4,30.09,ENE,68,5.0,-999.0,51,0.00,,,0.00,Wunderground v.1.15,2013-08-31 21:20:00,
2013-08-31 11:25:00,87.8,67.4,30.09,ENE,68,5.0,-999.0,51,0.00,,,0.00,Wunderground v.1.15,2013-08-31 21:25:00,
2013-08-31 11:30:00,87.8,67.4,30.09,ENE,68,5.0,-999.0,51,0.00,,,0.00,Wunderground v.1.15,2013-08-31 21:30:00,
2013-08-31 11:35:00,87.8,67.4,30.09,ENE,68,5.0,-999.0,51,0.00,,,0.00,Wunderground v.1.15,2013-08-31 21:35:00,
2013-08-31 11:40:00,87.8,67.4,30.09,ENE,68,5.0,-999.0,51,0.00,,,0.00,Wunderground v.1.15,2013-08-31 21:40:00,
2013-08-31 11:45:00,89.7,69.2,30.08,NE,45,10.0,-999.0,51,0.00,,,0.00,Wunderground v.1.15,2013-08-31 21:45:00,
2013-08-31 11:50:00,89.7,69.2,30.08,NE,45,10.0,-999.0,51,0.00,,,0.00,Wunderground v.1.15,2013-08-31 21:50:00,
2013-08-31 11:55:00,89.7,69.2,30.08,NE,45,10.0,-999.0,51,0.00,,,0.00,Wunderground v.1.15,2013-08-31 21:55:00,
2013-08-31 12:00:00,89.7,69.2,30.08,NE,45,10.0,-999.0,51,0.00,,,0.00,Wunderground v.1.15,2013-08-31 22:00:00,
2013-08-31 12:05:00,89.7,69.2,30.08,NE,45,10.0,-999.0,51,0.00,,,0.00,Wunderground v.1.15,2013-08-31 22:05:00,
2013-08-31 12:10:00,89.7,69.2,30.08,NE,45,10.0,-999.0,51,0.00,,,0.00,Wunderground v.1.15,2013-08-31 22:10:00,
2013-08-31 12:15:00,89.2,67.5,30.08,NE,45,8.0,-999.0,49,0.00,,,0.00,Wunderground v.1.15,2013-08-31 22:15:00,
2013-08-31 12:20:00,89.2,67.5,30.08,NE,45,8.0,-999.0,49,0.00,,,0.00,Wunderground v.1.15,2013-08-31 22:20:00,
2013-08-31 12:25:00,89.2,67.5,30.08,NE,45,8.0,-999.0,49,0.00,,,0.00,Wunderground v.1.15,2013-08-31 22:25:00,
2013-08-31 12:30:00,89.2,67.5,30.08,NE,45,8.0,-999.0,49,0.00,,,0.00,Wunderground v.1.15,2013-08-31 22:30:00,
2013-08-31 12:35:00,89.2,67.5,30.08,NE,45,8.0,-999.0,49,0.00,,,0.00,Wunderground v.1.15,2013-08-31 22:35:00,
2013-08-31 12:40:00,89.2,67.5,30.08,NE,45,8.0,-999.0,49,0.00,,,0.00,Wunderground v.1.15,2013-08-31 22:40:00,
2013-08-31 12:45:00,89.8,67.5,30.06,NE,45,8.0,-999.0,48,0.00,,,0.00,Wunderground v.1.15,2013-08-31 22:45:00,
2013-08-31 12:50:00,89.8,67.5,30.06,NE,45,8.0,-999.0,48,0.00,,,0.00,Wunderground v.1.15,2013-08-31 22:50:00,
2013-08-31 12:55:00,89.8,67.5,30.06,NE,45,8.0,-999.0,48,0.00,,,0.00,Wunderground v.1.15,2013-08-31 22:55:00,
2013-08-31 13:00:00,89.8,67.5,30.06,NE,45,8.0,-999.0,48,0.00,,,0.00,Wunderground v.1.15,2013-08-31 23:00:00,
2013-08-31 13:05:00,89.8,67.5,30.06,NE,45,8.0,-999.0,48,0.00,,,0.00,Wunderground v.1.15,2013-08-31 23:05:00,
2013-08-31 13:10:00,89.8,67.5,30.06,NE,45,8.0,-999.0,48,0.00,,,0.00,Wunderground v.1.15,2013-08-31 23:10:00,
2013-08-31 13:15:00,90.0,69.4,30.05,NE,45,9.0,-999.0,51,0.00,,,0.00,Wunderground v.1.15,2013-08-31 23:15:00,
2013-08-31 13:20:00,90.0,69.4,30.05,NE,45,9.0,-999.0,51,0.00,,,0.00,Wunderground v.1.15,2013-08-31 23:20:00,
2013-08-31 13:25:00,90.0,69.4,30.05,NE,45,9.0,-999.0,51,0.00,,,0.00,Wunderground v.1.15,2013-08-31 23:25:00,
2013-08-31 13:30:00,90.0,69.4,30.05,NE,45,9.0,-999.0,51,0.00,,,0.00,Wunderground v.1.15,2013-08-31 23:30:00,
2013-08-31 13:35:00,90.0,69.4,30.05,NE,45,9.0,-999.0,51,0.00,,,0.00,Wunderground v.1.15,2013-08-31 23:35:00,
2013-08-31 13:40:00,90.0,69.4,30.05,NE,45,9.0,-999.0,51,0.00,,,0.00,Wunderground v.1.15,2013-08-31 23:40:00,
2013-08-31 13:45:00,88.7,69.9,30.05,NE,45,9.0,-999.0,54,0.00,,,0.00,Wunderground v.1.15,2013-08-31 23:45:00,
2013-08-31 13:55:00,88.7,69.9,30.05,NE,45,9.0,-999.0,54,0.00,,,0.00,Wunderground v.1.15,2013-08-31 23:55:00,
2013-08-31 14:05:00,88.7,69.9,30.05,NE,45,9.0,-999.0,54,0.00,,,0.00,Wunderground v.1.15,2013-09-01 00:05:00,
2013-08-31 14:10:00,88.7,69.9,30.05,NE,45,9.0,-999.0,54,0.00,,,0.00,Wunderground v.1.15,2013-09-01 00:10:00,
2013-08-31 14:15:00,88.4,69.1,30.03,NE,45,9.0,-999.0,53,0.00,,,0.00,Wunderground v.1.15,2013-09-01 00:15:00,
2013-08-31 14:20:00,88.4,69.1,30.03,NE,45,9.0,-999.0,53,0.00,,,0.00,Wunderground v.1.15,2013-09-01 00:20:00,
2013-08-31 14:25:00,88.4,69.1,30.03,NE,45,9.0,-999.0,53,0.00,,,0.00,Wunderground v.1.15,2013-09-01 00:25:00,
2013-08-31 14:30:00,88.4,69.1,30.03,NE,45,9.0,-999.0,53,0.00,,,0.00,Wunderground v.1.15,2013-09-01 00:30:00,
2013-08-31 14:35:00,88.4,69.1,30.03,NE,45,9.0,-999.0,53,0.00,,,0.00,Wunderground v.1.15,2013-09-01 00:35:00,
2013-08-31 14:40:00,88.4,69.1,30.03,NE,45,9.0,-999.0,53,0.00,,,0.00,Wunderground v.1.15,2013-09-01 00:40:00,
2013-08-31 14:45:00,88.6,68.7,30.03,NE,45,10.0,-999.0,52,0.00,,,0.00,Wunderground v.1.15,2013-09-01 00:45:00,
2013-08-31 14:50:00,88.6,68.7,30.03,NE,45,10.0,-999.0,52,0.00,,,0.00,Wunderground v.1.15,2013-09-01 00:50:00,
2013-08-31 14:55:00,88.6,68.7,30.03,NE,45,10.0,-999.0,52,0.00,,,0.00,Wunderground v.1.15,2013-09-01 00:55:00,
2013-08-31 15:00:00,88.6,68.7,30.03,NE,45,10.0,-999.0,52,0.00,,,0.00,Wunderground v.1.15,2013-09-01 01:00:00,
2013-08-31 15:05:00,88.6,68.7,30.03,NE,45,10.0,-999.0,52,0.00,,,0.00,Wunderground v.1.15,2013-09-01 01:05:00,
2013-08-31 15:10:00,88.6,68.7,30.03,NE,45,10.0,-999.0,52,0.00,,,0.00,Wunderground v.1.15,2013-09-01 01:10:00,
2013-08-31 15:15:00,88.1,67.1,30.02,NE,45,9.0,-999.0,50,0.00,,,0.00,Wunderground v.1.15,2013-09-01 01:15:00,
2013-08-31 15:20:00,88.1,67.1,30.02,NE,45,9.0,-999.0,50,0.00,,,0.00,Wunderground v.1.15,2013-09-01 01:20:00,
2013-08-31 15:25:00,88.1,67.1,30.02,NE,45,9.0,-999.0,50,0.00,,,0.00,Wunderground v.1.15,2013-09-01 01:25:00,
2013-08-31 15:30:00,88.1,67.1,30.02,NE,45,9.0,-999.0,50,0.00,,,0.00,Wunderground v.1.15,2013-09-01 01:30:00,
2013-08-31 15:35:00,88.1,67.1,30.02,NE,45,9.0,-999.0,50,0.00,,,0.00,Wunderground v.1.15,2013-09-01 01:35:00,
2013-08-31 15:40:00,88.1,67.1,30.02,NE,45,9.0,-999.0,50,0.00,,,0.00,Wunderground v.1.15,2013-09-01 01:40:00,
2013-08-31 15:45:00,87.4,72.3,30.02,NE,45,8.0,-999.0,61,0.00,,,0.00,Wunderground v.1.15,2013-09-01 01:45:00,
2013-08-31 15:50:00,87.4,72.3,30.02,NE,45,8.0,-999.0,61,0.00,,,0.00,Wunderground v.1.15,2013-09-01 01:50:00,
2013-08-31 15:55:00,87.4,72.3,30.02,NE,45,8.0,-999.0,61,0.00,,,0.00,Wunderground v.1.15,2013-09-01 01:55:00,
2013-08-31 16:00:00,87.4,72.3,30.02,NE,45,8.0,-999.0,61,0.00,,,0.00,Wunderground v.1.15,2013-09-01 02:00:00,
2013-08-31 16:05:00,87.4,72.3,30.02,NE,45,8.0,-999.0,61,0.00,,,0.00,Wunderground v.1.15,2013-09-01 02:05:00,
2013-08-31 16:10:00,87.4,72.3,30.02,NE,45,8.0,-999.0,61,0.00,,,0.00,Wunderground v.1.15,2013-09-01 02:10:00,
2013-08-31 16:15:00,86.1,70.6,30.01,NE,45,8.0,-999.0,60,0.00,,,0.00,Wunderground v.1.15,2013-09-01 02:15:00,
2013-08-31 16:20:00,86.1,70.6,30.01,NE,45,8.0,-999.0,60,0.00,,,0.00,Wunderground v.1.15,2013-09-01 02:20:00,
2013-08-31 16:25:00,86.1,70.6,30.01,NE,45,8.0,-999.0,60,0.00,,,0.00,Wunderground v.1.15,2013-09-01 02:25:00,
2013-08-31 16:30:00,86.1,70.6,30.01,NE,45,8.0,-999.0,60,0.00,,,0.00,Wunderground v.1.15,2013-09-01 02:30:00,
2013-08-31 16:35:00,86.1,70.6,30.01,NE,45,8.0,-999.0,60,0.00,,,0.00,Wunderground v.1.15,2013-09-01 02:35:00,
2013-08-31 16:40:00,86.1,70.6,30.01,NE,45,8.0,-999.0,60,0.00,,,0.00,Wunderground v.1.15,2013-09-01 02:40:00,
2013-08-31 16:45:00,85.2,69.7,30.01,NE,45,8.0,-999.0,60,0.00,,,0.00,Wunderground v.1.15,2013-09-01 02:45:00,
2013-08-31 16:50:00,85.2,69.7,30.01,NE,45,8.0,-999.0,60,0.00,,,0.00,Wunderground v.1.15,2013-09-01 02:50:00,
2013-08-31 16:55:00,85.2,69.7,30.01,NE,45,8.0,-999.0,60,0.00,,,0.00,Wunderground v.1.15,2013-09-01 02:55:00,
2013-08-31 17:00:00,85.2,69.7,30.01,NE,45,8.0,-999.0,60,0.00,,,0.00,Wunderground v.1.15,2013-09-01 03:00:00,
2013-08-31 17:05:00,85.2,69.7,30.01,NE,45,8.0,-999.0,60,0.00,,,0.00,Wunderground v.1.15,2013-09-01 03:05:00,
2013-08-31 17:10:00,85.2,69.7,30.01,NE,45,8.0,-999.0,60,0.00,,,0.00,Wunderground v.1.15,2013-09-01 03:10:00,
2013-08-31 17:15:00,84.2,70.7,30.01,NE,45,7.0,-999.0,64,0.00,,,0.00,Wunderground v.1.15,2013-09-01 03:15:00,
2013-08-31 17:20:00,84.2,70.7,30.01,NE,45,7.0,-999.0,64,0.00,,,0.00,Wunderground v.1.15,2013-09-01 03:20:00,
2013-08-31 17:25:00,84.2,70.7,30.01,NE,45,7.0,-999.0,64,0.00,,,0.00,Wunderground v.1.15,2013-09-01 03:25:00,
2013-08-31 17:30:00,84.2,70.7,30.01,NE,45,7.0,-999.0,64,0.00,,,0.00,Wunderground v.1.15,2013-09-01 03:30:00,
2013-08-31 17:35:00,84.2,70.7,30.01,NE,45,7.0,-999.0,64,0.00,,,0.00,Wunderground v.1.15,2013-09-01 03:35:00,
2013-08-31 17:40:00,84.2,70.7,30.01,NE,45,7.0,-999.0,64,0.00,,,0.00,Wunderground v.1.15,2013-09-01 03:40:00,
2013-08-31 17:45:00,82.6,70.1,30.02,NE,45,6.0,-999.0,66,0.00,,,0.00,Wunderground v.1.15,2013-09-01 03:45:00,
2013-08-31 17:50:00,82.6,70.1,30.02,NE,45,6.0,-999.0,66,0.00,,,0.00,Wunderground v.1.15,2013-09-01 03:50:00,
2013-08-31 17:55:00,82.6,70.1,30.02,NE,45,6.0,-999.0,66,0.00,,,0.00,Wunderground v.1.15,2013-09-01 03:55:00,
2013-08-31 18:00:00,82.6,70.1,30.02,NE,45,6.0,-999.0,66,0.00,,,0.00,Wunderground v.1.15,2013-09-01 04:00:00,
2013-08-31 18:05:00,82.6,70.1,30.02,NE,45,6.0,-999.0,66,0.00,,,0.00,Wunderground v.1.15,2013-09-01 04:05:00,
2013-08-31 18:10:00,82.6,70.1,30.02,NE,45,6.0,-999.0,66,0.00,,,0.00,Wunderground v.1.15,2013-09-01 04:10:00,
2013-08-31 18:15:00,80.6,69.5,30.02,NE,45,5.0,-999.0,69,0.00,,,0.00,Wunderground v.1.15,2013-09-01 04:15:00,
2013-08-31 18:20:00,80.6,69.5,30.02,NE,45,5.0,-999.0,69,0.00,,,0.00,Wunderground v.1.15,2013-09-01 04:20:00,
2013-08-31 18:25:00,80.6,69.5,30.02,NE,45,5.0,-999.0,69,0.00,,,0.00,Wunderground v.1.15,2013-09-01 04:25:00,
2013-08-31 18:30:00,80.6,69.5,30.02,NE,45,5.0,-999.0,69,0.00,,,0.00,Wunderground v.1.15,2013-09-01 04:30:00,
2013-08-31 18:35:00,80.6,69.5,30.02,NE,45,5.0,-999.0,69,0.00,,,0.00,Wunderground v.1.15,2013-09-01 04:35:00,
2013-08-31 18:40:00,80.6,69.5,30.02,NE,45,5.0,-999.0,69,0.00,,,0.00,Wunderground v.1.15,2013-09-01 04:40:00,
2013-08-31 18:45:00,78.8,69.0,30.03,ENE,68,3.0,-999.0,72,0.00,,,0.00,Wunderground v.1.15,2013-09-01 04:45:00,
2013-08-31 18:50:00,78.8,69.0,30.03,ENE,68,3.0,-999.0,72,0.00,,,0.00,Wunderground v.1.15,2013-09-01 04:50:00,
2013-08-31 18:55:00,78.8,69.0,30.03,ENE,68,3.0,-999.0,72,0.00,,,0.00,Wunderground v.1.15,2013-09-01 04:55:00,
2013-08-31 19:00:00,78.8,69.0,30.03,ENE,68,3.0,-999.0,72,0.00,,,0.00,Wunderground v.1.15,2013-09-01 05:00:00,
2013-08-31 19:05:00,78.8,69.0,30.03,ENE,68,3.0,-999.0,72,0.00,,,0.00,Wunderground v.1.15,2013-09-01 05:05:00,
2013-08-31 19:10:00,78.8,69.0,30.03,ENE,68,3.0,-999.0,72,0.00,,,0.00,Wunderground v.1.15,2013-09-01 05:10:00,
2013-08-31 19:15:00,77.7,68.0,30.03,NE,45,2.0,-999.0,72,0.00,,,0.00,Wunderground v.1.15,2013-09-01 05:15:00,
2013-08-31 19:20:00,77.7,68.0,30.03,NE,45,2.0,-999.0,72,0.00,,,0.00,Wunderground v.1.15,2013-09-01 05:20:00,
2013-08-31 19:25:00,77.7,68.0,30.03,NE,45,2.0,-999.0,72,0.00,,,0.00,Wunderground v.1.15,2013-09-01 05:25:00,
2013-08-31 19:30:00,77.7,68.0,30.03,NE,45,2.0,-999.0,72,0.00,,,0.00,Wunderground v.1.15,2013-09-01 05:30:00,
2013-08-31 19:35:00,77.7,68.0,30.03,NE,45,2.0,-999.0,72,0.00,,,0.00,Wunderground v.1.15,2013-09-01 05:35:00,
2013-08-31 19:40:00,77.7,68.0,30.03,NE,45,2.0,-999.0,72,0.00,,,0.00,Wunderground v.1.15,2013-09-01 05:40:00,
2013-08-31 19:45:00,77.0,68.1,30.05,NE,45,2.0,-999.0,74,0.00,,,0.00,Wunderground v.1.15,2013-09-01 05:45:00,
2013-08-31 19:50:00,77.0,68.1,30.05,NE,45,2.0,-999.0,74,0.00,,,0.00,Wunderground v.1.15,2013-09-01 05:50:00,
2013-08-31 19:55:00,77.0,68.1,30.05,NE,45,2.0,-999.0,74,0.00,,,0.00,Wunderground v.1.15,2013-09-01 05:55:00,
2013-08-31 20:00:00,77.0,68.1,30.05,NE,45,2.0,-999.0,74,0.00,,,0.00,Wunderground v.1.15,2013-09-01 06:00:00,
2013-08-31 20:05:00,77.0,68.1,30.05,NE,45,2.0,-999.0,74,0.00,,,0.00,Wunderground v.1.15,2013-09-01 06:05:00,
2013-08-31 20:10:00,77.0,68.1,30.05,NE,45,2.0,-999.0,74,0.00,,,0.00,Wunderground v.1.15,2013-09-01 06:10:00,
2013-08-31 20:15:00,76.8,69.0,30.05,NE,45,3.0,-999.0,77,0.00,,,0.00,Wunderground v.1.15,2013-09-01 06:15:00,
2013-08-31 20:20:00,76.8,69.0,30.05,NE,45,3.0,-999.0,77,0.00,,,0.00,Wunderground v.1.15,2013-09-01 06:20:00,
2013-08-31 20:25:00,76.8,69.0,30.05,NE,45,3.0,-999.0,77,0.00,,,0.00,Wunderground v.1.15,2013-09-01 06:25:00,
2013-08-31 20:30:00,76.8,69.0,30.05,NE,45,3.0,-999.0,77,0.00,,,0.00,Wunderground v.1.15,2013-09-01 06:30:00,
2013-08-31 20:35:00,76.8,69.0,30.05,NE,45,3.0,-999.0,77,0.00,,,0.00,Wunderground v.1.15,2013-09-01 06:35:00,
2013-08-31 20:40:00,76.8,69.0,30.05,NE,45,3.0,-999.0,77,0.00,,,0.00,Wunderground v.1.15,2013-09-01 06:40:00,
2013-08-31 20:45:00,76.1,70.2,30.06,NE,45,4.0,-999.0,82,0.00,,,0.00,Wunderground v.1.15,2013-09-01 06:45:00,
2013-08-31 20:50:00,76.1,70.2,30.06,NE,45,4.0,-999.0,82,0.00,,,0.00,Wunderground v.1.15,2013-09-01 06:50:00,
2013-08-31 20:55:00,76.1,70.2,30.06,NE,45,4.0,-999.0,82,0.00,,,0.00,Wunderground v.1.15,2013-09-01 06:55:00,
2013-08-31 21:00:00,76.1,70.2,30.06,NE,45,4.0,-999.0,82,0.00,,,0.00,Wunderground v.1.15,2013-09-01 07:00:00,
2013-08-31 21:05:00,76.1,70.2,30.06,NE,45,4.0,-999.0,82,0.00,,,0.00,Wunderground v.1.15,2013-09-01 07:05:00,
2013-08-31 21:10:00,76.1,70.2,30.06,NE,45,4.0,-999.0,82,0.00,,,0.00,Wunderground v.1.15,2013-09-01 07:10:00,
2013-08-31 21:15:00,74.7,68.8,30.08,NE,45,2.0,-999.0,82,0.00,,,0.00,Wunderground v.1.15,2013-09-01 07:15:00,
2013-08-31 21:20:00,74.7,68.8,30.08,NE,45,2.0,-999.0,82,0.00,,,0.00,Wunderground v.1.15,2013-09-01 07:20:00,
2013-08-31 21:25:00,74.7,68.8,30.08,NE,45,2.0,-999.0,82,0.00,,,0.00,Wunderground v.1.15,2013-09-01 07:25:00,
2013-08-31 21:30:00,74.7,68.8,30.08,NE,45,2.0,-999.0,82,0.00,,,0.00,Wunderground v.1.15,2013-09-01 07:30:00,
2013-08-31 21:35:00,74.7,68.8,30.08,NE,45,2.0,-999.0,82,0.00,,,0.00,Wunderground v.1.15,2013-09-01 07:35:00,
2013-08-31 21:40:00,74.7,68.8,30.08,NE,45,2.0,-999.0,82,0.00,,,0.00,Wunderground v.1.15,2013-09-01 07:40:00,
2013-08-31 21:45:00,74.3,68.4,30.08,NE,45,1.0,-999.0,82,0.00,,,0.00,Wunderground v.1.15,2013-09-01 07:45:00,
2013-08-31 21:50:00,74.3,68.4,30.08,NE,45,1.0,-999.0,82,0.00,,,0.00,Wunderground v.1.15,2013-09-01 07:50:00,
2013-08-31 22:00:00,74.3,68.4,30.08,NE,45,1.0,-999.0,82,0.00,,,0.00,Wunderground v.1.15,2013-09-01 08:00:00,
2013-08-31 22:04:00,74.3,68.4,30.08,NE,45,1.0,-999.0,82,0.00,,,0.00,Wunderground v.1.15,2013-09-01 08:04:00,
2013-08-31 22:05:00,74.3,68.4,30.08,NE,45,1.0,-999.0,82,0.00,,,0.00,Wunderground v.1.15,2013-09-01 08:05:00,
2013-08-31 22:10:00,74.3,68.4,30.08,NE,45,1.0,-999.0,82,0.00,,,0.00,Wunderground v.1.15,2013-09-01 08:10:00,
2013-08-31 22:15:00,73.9,68.4,30.08,NE,45,3.0,-999.0,83,0.00,,,0.00,Wunderground v.1.15,2013-09-01 08:15:00,
2013-08-31 22:20:00,73.9,68.4,30.08,NE,45,3.0,-999.0,83,0.00,,,0.00,Wunderground v.1.15,2013-09-01 08:20:00,
2013-08-31 22:25:00,73.9,68.4,30.08,NE,45,3.0,-999.0,83,0.00,,,0.00,Wunderground v.1.15,2013-09-01 08:25:00,
2013-08-31 22:30:00,73.9,68.4,30.08,NE,45,3.0,-999.0,83,0.00,,,0.00,Wunderground v.1.15,2013-09-01 08:30:00,
2013-08-31 22:35:00,73.9,68.4,30.08,NE,45,3.0,-999.0,83,0.00,,,0.00,Wunderground v.1.15,2013-09-01 08:35:00,
2013-08-31 22:40:00,73.9,68.4,30.08,NE,45,3.0,-999.0,83,0.00,,,0.00,Wunderground v.1.15,2013-09-01 08:40:00,
2013-08-31 22:45:00,73.3,66.8,30.07,NE,45,1.0,-999.0,80,0.00,,,0.00,Wunderground v.1.15,2013-09-01 08:45:00,
2013-08-31 22:50:00,73.3,66.8,30.07,NE,45,1.0,-999.0,80,0.00,,,0.00,Wunderground v.1.15,2013-09-01 08:50:00,
2013-08-31 22:55:00,73.3,66.8,30.07,NE,45,1.0,-999.0,80,0.00,,,0.00,Wunderground v.1.15,2013-09-01 08:55:00,
2013-08-31 23:00:00,73.3,66.8,30.07,NE,45,1.0,-999.0,80,0.00,,,0.00,Wunderground v.1.15,2013-09-01 09:00:00,
2013-08-31 23:05:00,73.3,66.8,30.07,NE,45,1.0,-999.0,80,0.00,,,0.00,Wunderground v.1.15,2013-09-01 09:05:00,
2013-08-31 23:10:00,73.3,66.8,30.07,NE,45,1.0,-999.0,80,0.00,,,0.00,Wunderground v.1.15,2013-09-01 09:10:00,
2013-08-31 23:15:00,74.3,65.5,30.06,NE,45,5.0,-999.0,74,0.00,,,0.00,Wunderground v.1.15,2013-09-01 09:15:00,
2013-08-31 23:20:00,74.3,65.5,30.06,NE,45,5.0,-999.0,74,0.00,,,0.00,Wunderground v.1.15,2013-09-01 09:20:00,
2013-08-31 23:25:00,74.3,65.5,30.06,NE,45,5.0,-999.0,74,0.00,,,0.00,Wunderground v.1.15,2013-09-01 09:25:00,
2013-08-31 23:30:00,74.3,65.5,30.06,NE,45,5.0,-999.0,74,0.00,,,0.00,Wunderground v.1.15,2013-09-01 09:30:00,
2013-08-31 23:35:00,74.3,65.5,30.06,NE,45,5.0,-999.0,74,0.00,,,0.00,Wunderground v.1.15,2013-09-01 09:35:00,
2013-08-31 23:40:00,74.3,65.5,30.06,NE,45,5.0,-999.0,74,0.00,,,0.00,Wunderground v.1.15,2013-09-01 09:40:00,
2013-08-31 23:45:00,75.2,66.3,30.06,ENE,68,4.0,-999.0,74,0.00,,,0.00,Wunderground v.1.15,2013-09-01 09:45:00,
2013-08-31 23:50:00,75.2,66.3,30.06,ENE,68,4.0,-999.0,74,0.00,,,0.00,Wunderground v.1.15,2013-09-01 09:50:00,
2013-08-31 23:55:00,75.2,66.3,30.06,ENE,68,4.0,-999.0,74,0.00,,,0.00,Wunderground v.1.15,2013-09-01 09:55:00,